www.pogodaiklimat.ru

Погода и климат >> Архив погоды >> Филиппины >> Куби Пойнт


ПОГОДА в Куби Пойнт

  • Прогноз погоды в Куби Пойнт
  • Монитор погоды в Куби Пойнт

АРХИВ ПОГОДЫ в Куби Пойнт

Время (UTC), дата Ветер
(напр.,м/с)
 
Видим.   Явления Облачность Т
(С)
Тd
(С)
f
(%)
Тe
(С)
Тes
(С)
Комфортность P
(гПа)
Po
(гПа)
Тmin
(С)
Tmax
(С)
R
(мм)
R24
(мм)
S
(см)
12 18.06 Ю 1 14 км зарница {гроза, туман} 9/3 540 м
[Cb cap Ac cuf Cs]
+28.4 +25.5 84 +42 +42 опасность
перегрева
1010.4 1008.2 +33.4
15 18.06 В 1 14 км мгла {туман} 5/3 600 м
[Cu hum Ac trans Ci]
+28.3 +24.9 82 +41 +41 опасность
перегрева
1011.6 1009.4
18 18.06 В 1 14 км мгла {туман} 4/1 600 м
[Cu hum Ci fib]
+26.2 +24.5 90 +37 +37 очень
душно
1010.3 1008.1
21 18.06 В 2 14 км мгла {туман} 5/1 600 м
[Cu hum Ac trans Ci]
+25.9 +24.0 89 +36 +36 очень
душно
1010.0 1007.8
00 19.06 СВ 1 20 км мгла {туман} 3/1 600 м
[Cu hum Ac trans Ci fib]
+29.8 +24.0 71 +41 +47 опасность
перегрева
1010.8 1008.6 +25.5
03 19.06 В 4 20 км мгла {туман} 1/1 600 м
[Cu hum Ac trans Ci fib]
+32.6 +23.7 60 +44 +57 опасность
перегрева
1009.9 1007.7
06 19.06 В 4 20 км мгла {туман} 6/3 600 м
[Cu hum Ac trans]
+33.2 +25.6 64 +48 +54 опасность
перегрева
1007.8 1005.6
09 19.06 Ю 2 18 км мгла {туман} 6/5 540 м
[Cu med, cong Ac trans]
+31.1 +26.3 76 +47 +48 опасность
перегрева
1007.0 1004.8
12 19.06 С 3 14 км мгла {туман} 6/1 600 м
[Cu hum Ac trans Cs]
+29.9 +25.3 76 +43 +43 опасность
перегрева
1008.5 1006.3 +34.5
15 19.06 ЮВ 1 14 км мгла {туман} 4/1 600 м
[Cu hum Ac trans Ci fib]
+28.4 +25.1 82 +41 +41 опасность
перегрева
1009.8 1007.6
18 19.06 В 1 14 км зарница {туман} 6/4 540 м
[Cb cap Ac cuf Ci ing]
+27.1 +24.8 87 +39 +39 очень
душно
1009.2 1007.0
21 19.06 В 2 14 км зарница {туман} 4/3 540 м
[Cb cap Ac cuf Ci ing]
+26.8 +24.4 87 +38 +38 очень
душно
1008.9 1006.7
00 20.06 С 1 15 км мгла {туман} 1/1 600 м
[Cu hum Ac trans Ci fib]
+30.5 +26.1 77 +46 +53 опасность
перегрева
1009.7 1007.5 +25.9
03 20.06 ЮЗ 3 20 км мгла {туман} 6/3 600 м
[Cu med, cong Cs]
+31.7 +25.0 68 +45 +56 опасность
перегрева
1009.5 1007.3
06 20.06 ЮЗ 4 18 км мгла {туман} 9/1 600 м
[Cu med, cong Ac cuf Cs]
+32.1 +26.7 73 +49 +55 опасность
перегрева
1008.0 1005.8
09 20.06 ЮЗ 5 15 км мгла {туман} 6/4 540 м
[Cu med, cong Ac cuf Ci ing]
+31.4 +26.1 74 +47 +48 опасность
перегрева
1007.7 1005.5
12 20.06 С 2 12 км зарница {туман} 9/4 540 м
[Cb cap Ac cuf Cs]
+30.0 +25.8 78 +45 +45 опасность
перегрева
1008.8 1004.4 +32.3
15 20.06 В 2 12 км мгла {туман} 9/3 600 м
[Cu hum Ac As Cs]
+29.7 +25.9 80 +44 +44 опасность
перегрева
1009.9 1007.7
18 20.06 В 2 12 км мгла {туман} 6/1 600 м
[Cu hum Ac trans Ci]
+27.6 +26.0 91 +41 +41 опасность
перегрева
1009.0 1006.8
21 20.06 В 2 12 км мгла {туман} 4/1 600 м
[Cu hum Ac trans Cs]
+26.8 +25.2 91 +39 +39 очень
душно
1008.8 1006.6
00 21.06 СВ 1 10 км мгла {туман} 1/1 600 м
[Cu hum]
+29.8 +26.4 82 +46 +53 опасность
перегрева
1009.5 1007.3 +26.1
03 21.06 З 4 15 км мгла {туман} 5/4 600 м
[Cu med, cong Ac cuf Cs]
+32.0 +26.9 74 +49 +57 опасность
перегрева
1008.9 1006.7
06 21.06 ЮЗ 5 15 км мгла {туман} 5/3 600 м
[Cu med, cong Ac cuf Cs]
+32.5 +26.3 70 +49 +54 опасность
перегрева
1007.9 1005.7
09 21.06 ЮЗ 4 15 км мгла {туман} 8/4 600 м
[Cu med, cong Ac cuf Ci ing]
+31.8 +26.7 74 +49 +49 опасность
перегрева
1007.4 1005.2
12 21.06 Ю 1 12 км зарница {туман} 9/4 540 м
[Cb cap Ac cuf Cs]
+30.1 +26.2 80 +46 +46 опасность
перегрева
1009.4 1007.2 +32.8
15 21.06 В 2 12 км зарница {туман} 9/4 540 м
[Cb cap Ac trans Cs]
+29.0 +26.3 85 +44 +44 опасность
перегрева
1010.1 1007.9
18 21.06 В 3 12 км мгла {туман} 4/1 600 м
[Cu hum Ac trans]
+27.4 +25.3 88 +40 +40 очень
душно
1008.0 1005.8
21 21.06 В 2 15 км мгла {туман} 3/1 600 м
[Cu hum Ac trans]
+26.3 +25.0 93 +38 +38 очень
душно
1008.1 1005.9
00 22.06 С 1 10 км мгла {туман} 1/1 600 м
[Cu hum]
+29.9 +25.5 77 +44 +51 опасность
перегрева
1008.5 1006.3 +25.8
03 22.06 ЮЗ 4 15 км мгла {туман} 4/4 600 м
[Cu med, cong]
+32.2 +26.4 72 +49 +57 опасность
перегрева
1008.3 1006.1
06 22.06 15 км мгла {туман} н/о +32.5 +26.7 72 +50 +55 опасность
перегрева
1006.9 1004.7
09 22.06 С 3 15 км мгла {туман} 8/4 540 м
[Cu med, cong Ac cuf]
+29.4 +24.7 76 +42 +42 опасность
перегрева
1006.6 1004.4
12 22.06 СЗ 1 14 км мгла {туман} 3/1 600 м
[Cu med, cong Ac cuf]
+29.3 +26.2 83 +44 +44 опасность
перегрева
1008.5 1006.3 +33.5
15 22.06 СВ 3 14 км мгла {туман} 4/1 600 м
[Cu med, cong Ac cuf]
+28.0 +25.5 86 +41 +41 опасность
перегрева
1009.4 1007.2
18 22.06 ЮВ 4 14 км мгла {туман} 1/1 600 м
[Cu hum Ac trans]
+26.6 +24.3 87 +37 +37 очень
душно
1008.1 1005.9
21 22.06 В 2 18 км мгла {туман} 8/1 600 м
[Cu hum Ac trans]
+26.4 +24.3 88 +37 +37 очень
душно
1008.2 1006.0
00 23.06 СВ 1 15 км мгла {туман} 5/1 600 м
[Cu hum Ac trans Ci fib]
+29.3 +25.0 78 +42 +48 опасность
перегрева
1008.9 1006.7 +25.5
03 23.06 ЮЗ 5 20 км мгла {туман} 6/3 600 м
[Cu med, cong Cs]
+31.9 +25.8 70 +47 +54 опасность
перегрева
1008.9 1006.7
06 23.06 ЮЗ 7 18 км мгла {туман} 5/3 600 м
[Cu med, cong Cs]
+32.3 +26.4 71 +49 +52 опасность
перегрева
1007.5 1005.3
09 23.06 ЮЗ 6 18 км мгла {туман} 9/3 600 м
[Cu med, cong Ac trans Cs]
+31.4 +25.6 71 +46 +46 опасность
перегрева
1007.7 1005.5
12 23.06 Ю 2 15 км зарница {туман} 5/3 540 м
[Cb cap Cs]
+30.0 +26.1 80 +45 +45 опасность
перегрева
1009.4 1007.2 +32.7
15 23.06 ЮВ 2 15 км зарница {туман} 4/3 540 м
[Cb cap Cs]
+28.2 +25.7 86 +42 +42 опасность
перегрева
1010.7 1008.5
18 23.06 Ю 4 15 км зарница {туман} 3/3 540 м
[Cb cap Ac cuf]
+27.3 +24.2 83 +38 +38 очень
душно
1009.5 1007.3
21 23.06 В 2 18 км мгла {туман} 4/1 600 м
[Cu med, cong Ac trans]
+25.8 +24.0 90 +36 +36 очень
душно
1009.7 1007.5
00 24.06 СВ 2 18 км мгла {туман} 9/3 540 м
[Cu med, cong Ac trans Cs]
+29.3 +25.4 80 +43 +46 опасность
перегрева
1010.9 1008.7 +25.5
03 24.06 Ю 4 18 км мгла {туман} 8/4 600 м
[Cu med, cong Ac trans Cs]
+30.5 +25.7 76 +45 +51 опасность
перегрева
1011.1 1008.9
06 24.06 Ю 3 20 км мгла {туман} 8/4 540 м
[Cb cap Ac trans Ci ing]
+29.7 +25.0 76 +43 +48 опасность
перегрева
1008.7 1006.5
09 24.06 ЮЗ 4 20 км мгла {туман} 6/3 540 м
[Cu med, cong Ac trans Cs]
+30.2 +25.4 76 +44 +45 опасность
перегрева
1008.5 1006.3
12 24.06 Ю 2 8000 м слаб. ливневой дождь {туман} 9/6 480 м
[Cb cap As trans]
+28.3 +25.8 86 +42 +42 опасность
перегрева
1010.7 1008.5 +32.8 0.3
15 24.06 ЮЗ 2 12 км в посл. час ливневой дождь {туман} 9/4 540 м
[Cb cap Ac As]
+25.9 +24.3 91 +36 +36 очень
душно
1012.0 1009.8 0.7
18 24.06 ЮВ 2 12 км в посл. час ливневой дождь {туман} 6/4 540 м
[Cb cap Ac As]
+25.1 +24.3 95 +35 +35 очень
душно
1010.7 1008.5 1
21 24.06 СВ 2 15 км мгла {туман} 8/3 540 м
[Cu med, cong Ac trans Ci]
+24.9 +24.1 95 +34 +34 очень
душно
1009.9 1007.7
00 25.06 СВ 1 18 км мгла {туман} 9/3 540 м
[Cu med, cong Ac trans Cs]
+28.3 +25.4 84 +41 +44 опасность
перегрева
1011.1 1008.9 +24.8 2
03 25.06 ЮВ 2 18 км в посл. час ливневой дождь {туман} 9/4 540 м
[Cu med, cong Ac trans Cs]
+29.1 +25.8 82 +43 +50 опасность
перегрева
1010.7 1008.5 0.3
06 25.06 ЮЗ 3 18 км мгла {туман} 8/4 540 м
[Cb cap Ac trans Ci ing]
+29.6 +25.7 80 +44 +50 опасность
перегрева
1008.6 1006.4 0.3
09 25.06 СВ 1 18 км мгла {туман} 9/3 600 м
[Cu med, cong Ac As Cs]
+28.0 +24.7 82 +40 +41 очень
душно
1008.8 1006.6

 

Местоположение метеостанции Куби Пойнт (Филиппины): широта 14.80 долгота 120.26 высота над уровнем моря 14 м.

В архиве по умолчанию представлена погода в Куби Пойнт за последнюю неделю. Архивные данные за месяц целиком и за предыдущие месяцы, начиная с января 2011 года, Вы можете получить, выбрав интересующий диапазон дат из раскрывающегося списка и нажав кнопку "Ввод!".


*Определитесь, кто Вы:
робот инопланетянин человек

Внимание! Время в таблицах - всемирное. Для получения местного времени необходимо прибавить поправку, которая равна 8 ч.

Смотрите также архив погоды в соседних городах и на ближайших метеорологических станциях:

Погода на Базе ВВС Clark (Филиппины) (52 км)
Погода в Ибе (Филиппины) (67 км)
Погода в Сангли Пойнт (Филиппины) (77 км)
Погода в Маниле (Филиппины) (81 км)
Погода в Научном саду (Филиппины) (83 км)
Погода в Аэропорту Ninoy Aquino (Филиппины) (86 км)
Погода в Кабанатуане (Филиппины) (107 км)
Погода на Амбулонге (Филиппины) (117 км)
Погода в Танае (Филиппины) (122 км)
Погода в Дагупане (Филиппины) (139 км)

Пояснения к столбцам:

Ветер - указаны скорость ветра в м/с - средняя за 10 мин, порывы в срок и между сроками (в фигурных скобках) и направление, откуда дует ветер: С - северный, СВ - северо-восточный, В - восточный, ЮВ - юго-восточный, Ю - южный, ЮЗ - юго-западный, З - западный, СЗ - северо-западный.
Видимость - горизонтальная дальность видимости в метрах или километрах. При видимости от 1 до 10 км при отсутствии осадков обычно наблюдается дымка, при ухудшении видимости до 1 км и менее - туман. В сухую погоду видимость может ухудшаться дымом, пылью или мглою.
Явления - указаны атмосферные явления, наблюдавшиеся в срок или в последний час перед сроком; фигурными скобками обозначены явления, наблюдавшиеся между сроками (за 1-3 часа до срока); квадратными скобками обозначены град или гололедные отложения с указанием их диаметра в мм.
Облачность - указаны через наклонную черту общая и нижняя облачность в баллах и высота нижней границы облаков в метрах; квадратными скобками обозначены формы облаков: Ci - перистые, Cs - перисто-слоистые, Cc - перисто-кучевые, Ac - высококучевые, As - высокослоистые, Sc - слоисто-кучевые, Ns - слоисто-дождевые, Cu - кучевые, Cb - кучево-дождевые. Подробнее классификацию облаков см. в Атласе облаков (PDF).
T - Температура воздуха - температура, измеренная на высоте 2 м над землей.
Td - Температура точки росы - температура, при понижении до которой содержащийся в воздухе водяной пар достигнет насыщения.
f - Относительная влажность воздуха - влажноcть воздуха, измеренная на высоте 2 м над землей.
Te - Эффективная температура - температура, которую ощущает одетый по сезону человек в тени. Характеристика душности погоды. При расчете учитывается влияние влажности воздуха и скорости ветра на теплоощущения человека.
Tes - Эффективная температура на солнце - температура, которую ощущает человек, с поправкой на солнечный нагрев. Характеристика знойности погоды. Зависит от высоты солнца над горизонтом, облачности и скорости ветра. Ночью, в пасмурную погоду, а также при ветре 12 м/с и более поправка равна нулю.
P - Атмосферное давление - приведенное к уровню моря атмосферное давление.
Po - Атмосферное давление - измеренное на уровне метеостанции атмосферное давление.
Tmin - Минимальная температура - минимум температуры воздуха на высоте 2 м над землей.
Tmax - Максимальная температура - максимум температуры воздуха на высоте 2 м над землей.
R - Количество осадков - Количество выпавших осадков за период времени, мм. При наведении курсора мыши на число - период времени, за который выпало указанное количество осадков.
R24 - Количество осадков - Количество выпавших осадков за 24 часа, мм.
S - Снежный покров - Высота снежного покрова, см. При наведении курсора мыши на число - состояние снежного покрова и степень покрытия местности в баллах.